Overview Statistics Trail Chart Weather Telemetry Raw packets
 

This is the latest recevied weather packets stored in our database for station/object KG5APU. If no packets are shown the sender has not sent any weather packets the latest 10 day(s).

<< 30 31 32 33 34 35 36 >>
Time Temp. Humidity Pressure Rain* Wind** Luminosity Snow
1788179348 26.11° C 78% 1017.2 hPa 0 mm - 25 W/m² -
1788178744 26.11° C 77% 1016.9 hPa 0 mm - 16 W/m² -
1788178141 26.11° C 77% 1016.6 hPa 0 mm - 9 W/m² -
1788177536 26.67° C 76% 1016.5 hPa 0 mm - 3 W/m² -
1788176932 26.67° C 74% 1016.4 hPa 0 mm - 1 W/m² -
1788176335 26.67° C 74% 1016.2 hPa 0 mm - 0 W/m² -
1788175727 26.67° C 73% 1016.2 hPa 0 mm - 0 W/m² -
1788175123 27.22° C 73% 1016.4 hPa 0 mm - 0 W/m² -
1788174521 27.22° C 72% 1016.1 hPa 0 mm - 0 W/m² -
1788173919 27.22° C 71% 1016 hPa 0 mm - 0 W/m² -
1788173316 27.22° C 71% 1016 hPa 0 mm - 0 W/m² -
1788172712 27.22° C 71% 1015.9 hPa 0 mm - 0 W/m² -
1788172108 27.22° C 70% 1016 hPa 0 mm - 0 W/m² -
1788171505 27.78° C 70% 1015.9 hPa 0 mm - 0 W/m² -
1788170902 27.78° C 70% 1016.4 hPa 0 mm - 0 W/m² -
1788170297 27.78° C 70% 1016.1 hPa 0 mm - 0 W/m² -
1788169693 27.78° C 69% 1015.9 hPa 0 mm - 0 W/m² -
1788169090 27.78° C 69% 1016.1 hPa 0 mm - 0 W/m² -
1788168486 27.78° C 69% 1015.7 hPa 0 mm - 0 W/m² -
1788167881 27.78° C 67% 1015.8 hPa 0 mm - 0 W/m² -
1788167278 28.33° C 64% 1015.7 hPa 0 mm - 0 W/m² -
1788166676 28.33° C 64% 1015.4 hPa 0 mm - 0 W/m² -
1788166072 28.33° C 63% 1015.6 hPa 0 mm - 0 W/m² -
1788165469 28.33° C 64% 1015.5 hPa 0 mm - 0 W/m² -
1788164869 28.89° C 63% 1015.5 hPa 0 mm - 0 W/m² -

* Rain latest hour (hover to see other rain measurements)
** Current wind speed in m/s (hover to see current wind gust speed)